TimeCDT,TemperatureF,Dew PointF,Humidity,Sea Level PressureIn,VisibilityMPH,Wind Direction,Wind SpeedMPH,Gust SpeedMPH,PrecipitationIn,Events,Conditions,WindDirDegrees,DateUTC
12:15 AM,32.0,32.0,100,29.71,10.0,Calm,Calm,-,N/A,,Clear,0,2012-10-20 05:15:00
12:35 AM,32.0,30.2,93,29.71,10.0,Calm,Calm,-,N/A,,Clear,0,2012-10-20 05:35:00
12:55 AM,32.0,32.0,100,29.71,10.0,Calm,Calm,-,N/A,,Clear,0,2012-10-20 05:55:00
1:15 AM,30.2,30.2,100,29.72,10.0,Calm,Calm,-,N/A,,Clear,0,2012-10-20 06:15:00
1:35 AM,30.2,30.2,100,29.72,10.0,Calm,Calm,-,N/A,,Clear,0,2012-10-20 06:35:00
1:55 AM,30.2,30.2,100,29.73,10.0,Calm,Calm,-,N/A,,Clear,0,2012-10-20 06:55:00
2:15 AM,30.2,30.2,100,29.73,10.0,Calm,Calm,-,N/A,,Clear,0,2012-10-20 07:15:00
2:35 AM,28.4,28.4,100,29.73,10.0,Calm,Calm,-,N/A,,Clear,0,2012-10-20 07:35:00
2:55 AM,28.4,28.4,100,29.73,10.0,Calm,Calm,-,N/A,,Clear,0,2012-10-20 07:55:00
3:15 AM,28.4,28.4,100,29.73,10.0,Calm,Calm,-,N/A,,Clear,0,2012-10-20 08:15:00
3:35 AM,28.4,28.4,100,29.73,10.0,Calm,Calm,-,N/A,,Clear,0,2012-10-20 08:35:00
3:55 AM,28.4,28.4,100,29.74,10.0,Calm,Calm,-,N/A,,Scattered Clouds,0,2012-10-20 08:55:00
4:15 AM,28.4,28.4,100,29.74,10.0,Calm,Calm,-,N/A,,Clear,0,2012-10-20 09:15:00
4:35 AM,28.4,28.4,100,29.75,10.0,Calm,Calm,-,N/A,,Clear,0,2012-10-20 09:35:00
4:55 AM,28.4,26.6,93,29.75,10.0,Calm,Calm,-,N/A,,Clear,0,2012-10-20 09:55:00
5:15 AM,26.6,26.6,100,29.76,10.0,Calm,Calm,-,N/A,,Scattered Clouds,0,2012-10-20 10:15:00
5:35 AM,26.6,26.6,100,29.76,10.0,Calm,Calm,-,N/A,,Overcast,0,2012-10-20 10:35:00
5:55 AM,26.6,26.6,100,29.76,10.0,Calm,Calm,-,N/A,,Overcast,0,2012-10-20 10:55:00
6:15 AM,26.6,26.6,100,29.77,10.0,Calm,Calm,-,N/A,,Overcast,0,2012-10-20 11:15:00
6:35 AM,26.6,26.6,100,29.77,10.0,Calm,Calm,-,N/A,,Overcast,0,2012-10-20 11:35:00
6:55 AM,26.6,26.6,100,29.78,1.0,Calm,Calm,-,N/A,,Overcast,0,2012-10-20 11:55:00
7:15 AM,26.6,26.6,100,29.78,0.5,Calm,Calm,-,N/A,Fog,Light Freezing Fog,0,2012-10-20 12:15:00
7:35 AM,26.6,26.6,100,29.80,0.8,Calm,Calm,-,N/A,,Overcast,0,2012-10-20 12:35:00
7:55 AM,26.6,26.6,100,29.80,2.0,Calm,Calm,-,N/A,,Overcast,0,2012-10-20 12:55:00
8:15 AM,28.4,28.4,100,29.81,0.2,Calm,Calm,-,N/A,Fog,Light Freezing Fog,0,2012-10-20 13:15:00
8:35 AM,28.4,28.4,100,29.81,0.2,Calm,Calm,-,N/A,Fog,Light Freezing Fog,0,2012-10-20 13:35:00
8:55 AM,30.2,30.2,100,29.81,0.5,Calm,Calm,-,N/A,Fog,Light Freezing Fog,0,2012-10-20 13:55:00
9:15 AM,32.0,32.0,100,29.82,0.2,Calm,Calm,-,N/A,Fog,Fog,0,2012-10-20 14:15:00
9:35 AM,33.8,33.8,100,29.82,5.0,Calm,Calm,-,N/A,,Scattered Clouds,0,2012-10-20 14:35:00
9:55 AM,35.6,35.6,100,29.82,10.0,Calm,Calm,-,N/A,,Clear,0,2012-10-20 14:55:00
10:15 AM,39.2,39.2,100,29.82,10.0,Calm,Calm,-,N/A,,Clear,0,2012-10-20 15:15:00
10:35 AM,42.8,37.4,81,29.83,10.0,West,3.5,-,N/A,,Clear,270,2012-10-20 15:35:00
10:55 AM,44.6,37.4,76,29.82,10.0,NW,3.5,-,N/A,,Clear,310,2012-10-20 15:55:00
11:15 AM,46.4,37.4,71,29.82,10.0,West,3.5,-,N/A,,Clear,260,2012-10-20 16:15:00
11:35 AM,50.0,37.4,62,29.83,10.0,WSW,3.5,-,N/A,,Clear,250,2012-10-20 16:35:00
11:55 AM,50.0,37.4,62,29.83,10.0,NW,4.6,-,N/A,,Clear,320,2012-10-20 16:55:00
12:15 PM,51.8,37.4,58,29.82,10.0,Calm,Calm,-,N/A,,Clear,0,2012-10-20 17:15:00
12:35 PM,51.8,37.4,58,29.82,10.0,WSW,4.6,-,N/A,,Clear,250,2012-10-20 17:35:00
1:15 PM,53.6,37.4,54,29.80,10.0,WSW,5.8,-,N/A,,Scattered Clouds,250,2012-10-20 18:15:00
1:35 PM,53.6,35.6,51,29.79,10.0,SW,4.6,-,N/A,,Scattered Clouds,230,2012-10-20 18:35:00
1:55 PM,55.4,35.6,47,29.80,10.0,WNW,4.6,-,N/A,,Clear,290,2012-10-20 18:55:00
2:15 PM,55.4,35.6,47,29.80,10.0,West,6.9,-,N/A,,Scattered Clouds,270,2012-10-20 19:15:00
2:35 PM,55.4,35.6,47,29.80,10.0,West,6.9,-,N/A,,Scattered Clouds,260,2012-10-20 19:35:00
2:55 PM,55.4,35.6,47,29.80,10.0,SSW,4.6,-,N/A,,Clear,200,2012-10-20 19:55:00
3:15 PM,55.4,33.8,44,29.81,10.0,West,4.6,-,N/A,,Clear,270,2012-10-20 20:15:00
3:35 PM,55.4,33.8,44,29.80,10.0,SW,3.5,-,N/A,,Clear,220,2012-10-20 20:35:00
3:55 PM,55.4,33.8,44,29.81,10.0,WSW,6.9,-,N/A,,Clear,240,2012-10-20 20:55:00
4:15 PM,55.4,33.8,44,29.81,10.0,WSW,5.8,-,N/A,,Clear,240,2012-10-20 21:15:00
4:35 PM,55.4,33.8,44,29.81,10.0,WSW,3.5,-,N/A,,Clear,240,2012-10-20 21:35:00
4:55 PM,53.6,33.8,47,29.81,10.0,Calm,Calm,-,N/A,,Clear,0,2012-10-20 21:55:00
5:15 PM,53.6,33.8,47,29.82,10.0,Calm,Calm,-,N/A,,Clear,0,2012-10-20 22:15:00
5:35 PM,53.6,33.8,47,29.82,10.0,West,4.6,-,N/A,,Clear,260,2012-10-20 22:35:00
5:55 PM,51.8,35.6,54,29.82,10.0,WSW,3.5,-,N/A,,Clear,250,2012-10-20 22:55:00
6:15 PM,50.0,33.8,54,29.83,10.0,Calm,Calm,-,N/A,,Clear,0,2012-10-20 23:15:00
6:35 PM,42.8,33.8,70,29.83,10.0,Calm,Calm,-,N/A,,Clear,0,2012-10-20 23:35:00
6:55 PM,42.8,35.6,76,29.84,10.0,Calm,Calm,-,N/A,,Clear,0,2012-10-20 23:55:00
7:15 PM,41.0,33.8,76,29.84,10.0,Calm,Calm,-,N/A,,Clear,0,2012-10-21 00:15:00
7:35 PM,39.2,33.8,81,29.84,10.0,ESE,3.5,-,N/A,,Clear,110,2012-10-21 00:35:00
7:55 PM,37.4,33.8,87,29.85,10.0,Calm,Calm,-,N/A,,Clear,0,2012-10-21 00:55:00
8:15 PM,35.6,32.0,87,29.85,10.0,Calm,Calm,-,N/A,,Clear,0,2012-10-21 01:15:00
8:35 PM,35.6,33.8,93,29.85,10.0,Calm,Calm,-,N/A,,Clear,0,2012-10-21 01:35:00
8:55 PM,33.8,32.0,93,29.85,10.0,ESE,3.5,-,N/A,,Clear,120,2012-10-21 01:55:00
9:15 PM,33.8,32.0,93,29.85,10.0,Calm,Calm,-,N/A,,Clear,0,2012-10-21 02:15:00
9:35 PM,33.8,32.0,93,29.87,10.0,Calm,Calm,-,N/A,,Clear,0,2012-10-21 02:35:00
9:55 PM,32.0,32.0,100,29.88,10.0,Calm,Calm,-,N/A,,Clear,0,2012-10-21 02:55:00
10:15 PM,32.0,32.0,100,29.89,10.0,Calm,Calm,-,N/A,,Clear,0,2012-10-21 03:15:00
10:35 PM,32.0,32.0,100,29.89,10.0,Calm,Calm,-,N/A,,Clear,0,2012-10-21 03:35:00
10:55 PM,32.0,32.0,100,29.90,10.0,Calm,Calm,-,N/A,,Clear,0,2012-10-21 03:55:00
11:15 PM,32.0,32.0,100,29.90,10.0,Calm,Calm,-,N/A,,Clear,0,2012-10-21 04:15:00
11:35 PM,32.0,32.0,100,29.89,10.0,Calm,Calm,-,N/A,,Clear,0,2012-10-21 04:35:00
11:55 PM,32.0,30.2,93,29.89,10.0,Calm,Calm,-,N/A,,Clear,0,2012-10-21 04:55:00